www.pogodaiklimat.ru
Время
и дата
12:23 07.06
12:31 07.06
12:53 07.06
13:49 07.06
13:53 07.06
14:53 07.06
15:53 07.06
16:53 07.06
17:53 07.06
17:55 07.06
18:41 07.06
18:53 07.06
19:06 07.06
19:53 07.06
20:53 07.06
21:53 07.06
22:53 07.06
23:53 07.06
00:53 08.06
01:53 08.06
02:53 08.06
03:53 08.06
04:53 08.06
05:53 08.06
06:53 08.06
07:53 08.06
08:53 08.06
09:53 08.06
10:53 08.06
11:53 08.06
12:53 08.06
13:11 08.06
13:28 08.06
13:53 08.06
14:06 08.06
14:53 08.06
15:53 08.06
16:53 08.06
17:53 08.06
18:53 08.06
19:53 08.06
20:53 08.06
21:53 08.06
22:53 08.06
23:53 08.06
00:53 09.06
01:53 09.06
02:53 09.06
Ветер
(напр.,м/с)
Видим. Явления Облачность Т
(С)
Тd
(С)
f
(%)
Тe
(С)
Тes
(С)
Комфортность P
(гПа)
Po
(гПа)
Тmin
(С)
Tmax
(С)
R
(мм)
R24
(мм)
S
(см)
ЮВ 5 16 км гроза ясно +22.8 +13.3 55 +26 +36 жарко 833.9
ЮВ 4 16 км гроза 2/2 1380 m
[Cb]
+22.8 +13.3 55 +26 +36 жарко 833.9
ЮВ 5 16 км гроза 5/5 1440 m
[Cb]
+22.2 +12.2 53 +25 +30 комфорт 1009.5 833.9
В 4 16 км ясно +22.0 +12.0 53 +24 +37 комфорт 833.4
В 4 16 км ясно +22.2 +11.7 51 +24 +37 комфорт 1008.9 833.4
С 5 16 км 2/0 3600 m
[Ac]
+22.2 +11.7 51 +24 +32 комфорт 1010.3 834.2
СЗ 7
{12}
16 км 5/5 1650 м +20.6 +10.6 53 +22 +24 комфорт 1010.4 834.5
СЗ 5 16 км ясно +18.3 +11.1 63 +18 +23 1010.8 834.2 +18.3 +23.9
Ю 3 16 км 10/8 1800 m
[Ac]
+18.3 +11.1 63 +19 +19 1011.7 835.3
Ю 2 16 км гроза 10/8 1800 m
[Ac Cb]
+17.8 +11.1 65 +18 +19 835.3
ЮВ 3 6 км гроза, дождь, дымка 10/0 2100 m
[Ac]
+14.4 +12.2 87 +13 +14 836.1
штиль 0 6 км гроза, дождь, дымка 10/8 1950 m
[Ac Cb]
+13.9 +12.8 93 +13 +14 1013.1 836.1
СЗ 3 13 км дождь 10/10 1950 m
[Ns]
+13.9 +12.8 93 +13 +13 835.9
Ю 3 16 км 10/0 3000 m
[Ac]
+13.9 +11.7 87 +13 +13 1012.3 835.6 3.3
ЮЗ 4 16 км 8/0 2700 m
[Ac]
+13.3 +11.7 90 +12 +12 1011.9 835.6
ЮЗ 3 16 км ясно +12.2 +11.1 93 +11 +11 1011.9 835.6
ЮЗ 2 16 км ясно +12.8 +10.6 86 +12 +12 1011.6 835.3 +12.2 +18.3 3.3
ЮЗ 4 16 км ясно +12.2 +10.0 86 +10 +10 1011.5 835.3
З 3 16 км 2/0 3000 m
[Ac]
+11.7 +10.6 93 +10 +10 1011.4 835.3
ЮЗ 4 16 км 2/0 3300 m
[Ac]
+11.7 +10.6 93 +9 +9 1011.1 835.0
ЮЗ 3 16 км ясно +10.6 +9.4 92 +8 +8 1011.6 835.3
З 3 16 км ясно +10.0 +8.9 93 +8 +8 1012.1 835.3
З 3 13 км ясно +10.6 +8.9 89 +8 +8 1012.8 835.6 +10.0 +12.8 3.3
ЮЗ 4 16 км ясно +13.3 +10.0 80 +12 +12 1012.6 835.9
ЮЗ 4 16 км ясно +15.0 +11.1 77 +14 +15 1013.5 836.1
ЮЗ 4 16 км ясно +17.2 +11.7 70 +17 +20 1012.7 835.9
Ю 6 16 км ясно +18.9 +11.7 63 +19 +22 1012.3 835.6
ЮЗ 5 16 км ясно +20.6 +11.1 54 +22 +29 комфорт 1012.1 835.6
ЮЗ 4 16 км ясно +21.7 +10.6 49 +23 +34 комфорт 1011.8 835.6 +10.0 +21.7
З 4 16 км 2/0 3600 m
[Ac]
+22.8 +11.1 48 +25 +36 комфорт 1011.0 835.0
ЮЗ 3 16 км ясно +22.2 +10.6 48 +24 +41 комфорт 1010.7 834.7
ЮЗ 3 16 км гроза 5/0 3600 m
[Ac]
+23.9 +11.1 45 +25 +36 комфорт 834.7
штиль 0 16 км 2/0 3600 m
[Ac]
+22.2 +10.0 46 +24 +46 комфорт 834.7
В 6
{8}
16 км 8/8 1800 м +20.6 +10.6 53 +22 +24 комфорт 1011.2 834.7
В 5 16 км 8/5 1800 m
[Ac]
+19.4 +10.6 57 +20 +23 834.7
ЮВ 4 16 км 10/0 3000 m
[Ac]
+17.2 +10.6 65 +17 +20 1012.4 835.0
штиль 0 16 км слабый дождь 10/5 1950 m
[Ac Ns]
+17.8 +10.0 60 +18 +20 1012.7 835.3
штиль 0 16 км 8/0 2700 m
[Ac]
+16.1 +12.2 78 +16 +21 1012.0 834.7 +15.6 +23.9 0.5
З 3 16 км ясно +16.7 +12.8 78 +16 +20 1011.4 834.7
ЮЗ 3 16 км ясно +15.6 +12.2 80 +15 +17 1011.0 834.5
штиль 0 16 км ясно +12.8 +11.7 93 +12 +13 1011.0 834.5
Ю 2 16 км ясно +13.3 +11.7 90 +13 +13 1011.6 835.0
штиль 0 16 км ясно +12.2 +11.1 93 +12 +12 1011.5 835.3
штиль 0 16 км ясно +11.7 +11.1 96 +11 +11 1012.1 835.6 +10.6 +17.2
З 2 16 км 2/0 3300 m
[Ac]
+11.1 +10.0 93 +10 +10 1012.0 835.6
З 3 16 км ясно +10.0 +9.4 96 +8 +8 1012.4 835.6
З 3 16 км 5/0 3300 m
[Ac]
+9.4 +8.3 93 +7 +7 1013.2 836.1
ЮЗ 2 16 км 8/0 3300 m
[Ac]
+11.1 +10.0 93 +10 +10 1012.7 835.6
Местоположение метеостанции Natrona County International Airport: широта 42.8975 долгота -106.4636 высота над уровнем моря 1627 м.
В архиве по умолчанию представлена погода в Каспере за последние 1-2 суток. Обновление информации о фактической погоде в базе происходит ежечасно! Архивные данные за месяц целиком и за предыдущие месяцы Вы можете получить, выбрав интересующий диапазон дат из раскрывающегося списка и нажав кнопку "Ввод!".
Внимание! Архив погоды МЕТАР в базе сайта по станциям, не включенным в климатический монитор, хранится не более 60 дней. Нет смысла пытаться выбрать более раннюю дату.
*Определитесь, кто Вы:
Внимание! Время в таблицах - местное (без учета летнего времени). Для получения всемирного времени необходимо вычесть поправку, которая равна -7 ч.
Смотрите также архив погоды в соседних городах и на ближайших метеорологических станциях:
Партнеры нашего сайта:      
Пояснения к столбцам:
  • Ветер - указаны скорость ветра в м/с - средняя за 10 мин, порывы в срок и между сроками (в фигурных скобках) и направление, откуда дует ветер: С - северный,
  • СВ - северо-восточный, В - восточный, ЮВ - юго-восточный, Ю - южный, ЮЗ - юго-западный, З - западный, СЗ - северо-западный.
  • Видимость - горизонтальная дальность видимости в метрах или километрах. При видимости от 1 до 10 км при отсутствии осадков обычно наблюдается дымка, при ухудшении видимости до 1 км и менее - туман. В сухую погоду видимость может ухудшаться дымом, пылью или мглою.
  • Явления - указаны атмосферные явления, наблюдавшиеся в срок или в последний час перед сроком; фигурными скобками обозначены явления, наблюдавшиеся между сроками (за 1-3 часа до срока); квадратными скобками обозначены град или гололедные отложения с указанием их диаметра в мм.
  • Облачность - указаны через наклонную черту общая и нижняя облачность в баллах и высота нижней границы облаков в метрах; квадратными скобками обозначены формы облаков: Ci - перистые, Cs - перисто-слоистые, Cc - перисто-кучевые, Ac - высококучевые, As - высокослоистые, Sc - слоисто-кучевые, Ns - слоисто-дождевые, Cu - кучевые, Cb - кучево-дождевые. Подробнее классификацию облаков см. в Атласе облаков (PDF).
  • T - Температура воздуха - температура, измеренная на высоте 2 м над землей.
  • Td - Температура точки росы - температура, при понижении до которой содержащийся в воздухе водяной пар достигнет насыщения.
  • f - Относительная влажность воздуха - влажноcть воздуха, измеренная на высоте 2 м над землей.
  • Te - Эффективная температура - температура, которую ощущает одетый по сезону человек в тени. Характеристика душности погоды. При расчете учитывается влияние влажности воздуха и скорости ветра на теплоощущения человека.
  • Tes - Эффективная температура на солнце - температура, которую ощущает человек, с поправкой на солнечный нагрев. Характеристика знойности погоды. Зависит от высоты солнца над горизонтом, облачности и скорости ветра. Ночью, в пасмурную погоду, а также при ветре 12 м/с и более поправка равна нулю.
  • P - Атмосферное давление - приведенное к уровню моря атмосферное давление.
  • Po - Атмосферное давление - измеренное на уровне метеостанции атмосферное давление.
  • Tmin - Минимальная температура - минимум температуры воздуха на высоте 2 м над землей.
  • Tmax - Максимальная температура - максимум температуры воздуха на высоте 2 м над землей.
  • R - Количество осадков - Количество выпавших осадков за период времени, мм. При наведении курсора мыши на число - период времени, за который выпало указанное количество осадков.
  • R24 - Количество осадков - Количество выпавших осадков за 24 часа, мм.
  • S - Снежный покров - Высота снежного покрова, см. При наведении курсора мыши на число - состояние снежного покрова и степень покрытия местности в баллах.